period_start,C,m1,H,J0,J1,J2,J3,J4,J5,JA,JB,JC,JD,JJ,JK,JN,#
2017-11-23 00:00:25,0.03,1.49,0.00,15.72,18.95,22.21,14.57,50.13,1027.71,2060.91,2838.83,2812.90,3106.11,600.00,617.75,26.36,0000 0000 0000 0000 000000
2017-11-23 00:05:26,0.04,1.49,0.00,15.71,18.95,22.20,14.67,50.09,1027.76,2060.97,2838.06,2812.17,3105.77,600.35,618.07,26.41,0000 0000 0000 0000 000000
2017-11-23 00:10:28,0.02,1.49,0.00,15.72,18.94,22.18,14.55,50.12,1027.71,2060.95,2837.36,2812.00,3105.05,600.21,617.92,26.46,0000 0000 0000 0000 000000
2017-11-23 00:15:29,0.01,1.49,0.00,15.72,18.94,22.19,14.49,50.11,1027.75,2060.95,2837.00,2811.89,3104.98,599.79,617.55,26.51,0000 0000 0000 0000 000000
2017-11-23 00:20:30,0.05,1.49,0.00,15.69,18.94,22.23,14.52,50.02,1027.67,2060.95,2836.54,2811.25,3104.52,600.24,617.91,26.56,0000 0000 0000 0000 000000
2017-11-23 00:25:31,0.01,1.50,0.00,15.68,18.94,22.26,14.55,50.23,1027.58,2060.97,2836.01,2811.01,3104.04,600.04,617.83,26.61,0000 0000 0000 0000 000000
2017-11-23 00:30:32,0.03,1.50,0.00,15.68,18.93,22.22,14.43,50.08,1027.64,2060.97,2835.55,2810.74,3103.92,599.92,617.66,26.66,0000 0000 0000 0000 000000
2017-11-23 00:35:33,0.03,1.50,0.00,15.68,18.92,22.20,14.49,50.09,1027.56,2060.97,2834.91,2810.02,3103.10,599.83,617.55,26.71,0000 0000 0000 0000 000000
2017-11-23 00:40:35,0.02,1.50,0.00,15.67,18.92,22.27,14.51,50.03,1027.54,2060.99,2834.12,2809.96,3102.96,600.08,617.88,26.76,0000 0000 0000 0000 000000
2017-11-23 00:45:36,0.04,1.50,0.00,15.67,18.92,22.22,14.49,50.07,1027.62,2060.97,2833.83,2809.35,3102.30,599.69,617.44,26.81,0000 0000 0000 0000 000000
2017-11-23 00:50:37,0.02,1.51,0.00,15.65,18.92,22.22,14.51,50.10,1027.65,2060.97,2833.02,2808.94,3101.84,599.89,617.75,26.87,0000 0000 0000 0000 000000
2017-11-23 00:55:38,0.06,1.51,0.00,15.65,18.92,22.15,14.43,49.96,1027.82,2060.98,2832.43,2808.26,3101.08,599.76,617.77,26.92,0000 0000 0000 0000 000000
2017-11-23 01:00:40,0.00,1.51,0.00,15.66,18.92,22.12,14.45,49.92,1027.83,2060.99,2832.00,2808.03,3100.99,599.85,617.78,26.97,0000 0000 0000 0000 000000
2017-11-23 01:05:41,0.01,1.51,0.00,15.63,18.91,22.22,14.48,49.94,1027.82,2060.99,2831.78,2807.99,3100.74,600.05,618.06,27.02,0000 0000 0000 0000 000000
2017-11-23 01:10:42,0.03,1.51,0.00,15.63,18.90,22.17,14.52,50.17,1027.81,2060.99,2831.05,2807.76,3100.05,600.26,618.25,27.07,0000 0000 0000 0000 000000
2017-11-23 01:15:43,0.02,1.51,0.00,15.64,18.89,22.14,14.47,50.04,1027.85,2060.99,2830.77,2807.08,3099.98,600.14,618.14,27.12,0000 0000 0000 0000 000000
2017-11-23 01:20:45,0.02,1.51,0.00,15.64,18.89,22.11,14.52,49.83,1027.85,2060.99,2830.07,2806.99,3099.40,600.14,618.16,27.17,0000 0000 0000 0000 000000
2017-11-23 01:25:46,0.03,1.51,0.00,15.62,18.89,22.14,14.48,49.92,1027.84,2060.99,2829.73,2806.64,3099.00,599.93,617.92,27.22,0000 0000 0000 0000 000000
2017-11-23 01:30:47,0.03,1.52,0.00,15.62,18.89,22.09,14.48,49.90,1027.82,2060.99,2829.02,2806.03,3098.63,600.00,617.95,27.27,0000 0000 0000 0000 000000
2017-11-23 01:35:49,0.03,1.52,0.00,15.61,18.89,22.12,14.41,49.74,1027.85,2060.99,2828.38,2805.82,3098.01,599.74,617.86,27.32,0000 0000 0000 0000 000000
2017-11-23 01:40:50,0.04,1.52,0.00,15.62,18.89,22.13,14.51,49.80,1027.86,2060.99,2827.96,2805.07,3097.44,600.19,618.11,27.37,0000 0000 0000 0000 000000
2017-11-23 01:45:51,0.02,1.52,0.00,15.62,18.88,22.17,14.55,49.75,1027.91,2060.99,2827.29,2805.01,3097.03,599.76,617.78,27.42,0000 0000 0000 0000 000000
2017-11-23 01:50:53,0.00,1.52,0.00,15.61,18.87,22.12,14.42,49.74,1027.90,2060.99,2826.98,2804.97,3097.00,599.64,617.75,27.47,0000 0000 0000 0000 000000
2017-11-23 01:55:54,0.05,1.52,0.00,15.59,18.87,22.10,14.46,49.66,1028.14,2060.99,2826.33,2804.37,3096.51,600.03,618.34,27.52,0000 0000 0000 0000 000000
2017-11-23 02:00:55,0.01,1.53,0.00,15.59,18.87,22.12,14.46,49.60,1028.27,2060.99,2826.00,2804.01,3096.04,600.05,618.24,27.57,0000 0000 0000 0000 000000
2017-11-23 02:05:57,0.01,1.53,0.00,15.60,18.87,22.15,14.46,49.71,1028.18,2060.99,2825.39,2803.99,3095.95,599.76,618.15,27.62,0000 0000 0000 0000 000000
2017-11-23 02:10:58,0.05,1.53,0.00,15.60,18.87,22.11,14.62,49.83,1028.16,2060.99,2824.88,2803.32,3095.15,600.41,618.54,27.67,0000 0000 0000 0000 000000
2017-11-23 02:15:59,0.03,1.53,0.00,15.60,18.86,22.11,14.46,49.77,1028.29,2061.00,2824.08,2802.97,3094.55,599.72,618.04,27.72,0000 0000 0000 0000 000000
2017-11-23 02:21:00,0.02,1.53,0.00,15.60,18.85,22.08,14.46,49.70,1028.31,2061.00,2823.95,2802.58,3094.06,599.91,618.28,27.77,0000 0000 0000 0000 000000
2017-11-23 02:26:02,0.03,1.53,0.00,15.60,18.84,22.13,14.56,49.77,1028.31,2061.00,2823.13,2802.01,3093.97,600.10,618.47,27.82,0000 0000 0000 0000 000000
2017-11-23 02:31:03,0.01,1.53,0.00,15.59,18.84,22.12,14.49,49.74,1028.33,2061.01,2822.98,2801.98,3093.46,600.20,618.47,27.87,0000 0000 0000 0000 000000
2017-11-23 02:36:04,0.02,1.54,0.00,15.58,18.84,22.09,14.52,49.82,1028.31,2061.01,2822.38,2801.84,3093.03,600.07,618.49,27.92,0000 0000 0000 0000 000000
2017-11-23 02:41:05,0.02,1.54,0.00,15.58,18.84,22.06,14.54,49.80,1028.33,2061.02,2822.02,2801.28,3093.00,600.09,618.54,27.97,0000 0000 0000 0000 000000
2017-11-23 02:46:06,0.01,1.54,0.00,15.57,18.83,22.02,14.50,49.73,1028.32,2061.01,2821.86,2801.02,3092.84,600.24,618.61,28.02,0000 0000 0000 0000 000000
2017-11-23 02:51:07,0.03,1.54,0.00,15.59,18.82,22.06,14.50,49.73,1028.33,2061.01,2821.08,2800.99,3092.16,600.02,618.44,28.07,0000 0000 0000 0000 000000
2017-11-23 02:56:08,0.04,1.54,0.00,15.57,18.82,22.11,14.44,49.72,1028.33,2061.01,2820.49,2800.44,3091.90,599.83,618.25,28.12,0000 0000 0000 0000 000000
2017-11-23 03:01:10,0.02,1.54,0.00,15.57,18.82,22.13,14.48,49.74,1028.33,2061.01,2820.00,2800.01,3091.20,599.67,617.98,28.17,0000 0000 0000 0000 000000
2017-11-23 03:06:11,0.01,1.54,0.00,15.57,18.82,22.08,14.47,49.73,1028.33,2061.02,2819.50,2799.99,3091.00,599.92,618.35,28.22,0000 0000 0000 0000 000000
2017-11-23 03:11:12,0.01,1.54,0.00,15.56,18.81,22.08,14.44,49.67,1028.34,2061.03,2819.01,2799.93,3090.96,599.96,618.44,28.27,0000 0000 0000 0000 000000
2017-11-23 03:16:14,0.05,1.55,0.00,15.56,18.80,22.10,14.54,49.85,1028.34,2061.04,2818.75,2799.28,3090.24,600.10,618.55,28.32,0000 0000 0000 0000 000000
2017-11-23 03:21:15,0.01,1.55,0.00,15.55,18.79,22.04,14.52,49.79,1028.34,2061.03,2818.10,2799.01,3090.01,599.94,618.40,28.37,0000 0000 0000 0000 000000
2017-11-23 03:26:16,0.00,1.55,0.00,15.55,18.79,22.09,14.46,49.92,1028.34,2061.04,2817.97,2799.00,3090.00,599.77,618.04,28.42,0000 0000 0000 0000 000000
2017-11-23 03:31:18,0.02,1.55,0.00,15.55,18.79,22.04,14.54,49.84,1028.35,2061.04,2817.50,2798.97,3089.85,599.97,618.45,28.47,0000 0000 0000 0000 000000
2017-11-23 03:36:19,0.02,1.55,0.00,15.56,18.79,22.05,14.50,49.92,1028.35,2061.04,2817.01,2798.76,3089.13,599.86,618.35,28.52,0000 0000 0000 0000 000000
2017-11-23 03:41:20,0.02,1.55,0.00,15.56,18.79,22.00,14.53,49.85,1028.36,2061.06,2816.82,2798.21,3089.01,599.86,618.40,28.57,0000 0000 0000 0000 000000
2017-11-23 03:46:22,0.01,1.55,0.00,15.54,18.78,21.99,14.50,49.82,1028.40,2061.04,2816.07,2798.01,3088.99,599.86,618.41,28.62,0000 0000 0000 0000 000000
2017-11-23 03:51:23,0.01,1.55,0.00,15.55,18.77,22.06,14.52,49.81,1028.49,2061.06,2816.00,2798.00,3088.78,600.04,618.49,28.67,0000 0000 0000 0000 000000
2017-11-23 03:56:24,0.02,1.55,0.00,15.55,18.77,22.01,14.52,49.86,1028.54,2061.07,2815.55,2797.98,3088.06,600.04,618.64,28.72,0000 0000 0000 0000 000000
2017-11-23 04:01:26,0.01,1.55,0.00,15.54,18.77,22.09,14.50,49.80,1028.72,2061.15,2815.03,2797.84,3088.00,599.80,618.64,28.77,0000 0000 0000 0000 000000
2017-11-23 04:06:27,0.03,1.56,0.00,15.53,18.77,22.08,14.57,49.92,1028.77,2061.08,2814.75,2797.17,3087.85,600.18,619.05,28.82,0000 0000 0000 0000 000000
2017-11-23 04:11:28,0.02,1.56,0.00,15.53,18.77,22.04,14.53,49.95,1028.79,2061.09,2814.04,2797.00,3087.11,600.14,618.92,28.87,0000 0000 0000 0000 000000
2017-11-23 04:16:30,0.01,1.56,0.00,15.52,18.77,22.05,14.43,49.87,1028.81,2061.11,2813.81,2796.98,3087.00,599.83,618.70,28.92,0000 0000 0000 0000 000000
2017-11-23 04:21:31,0.02,1.56,0.00,15.52,18.76,22.04,14.54,49.82,1028.82,2061.10,2813.06,2796.69,3086.93,600.25,619.07,28.97,0000 0000 0000 0000 000000
2017-11-23 04:26:32,0.03,1.56,0.00,15.52,18.75,22.01,14.51,49.88,1028.82,2061.12,2812.98,2796.13,3086.31,599.97,618.81,29.02,0000 0000 0000 0000 000000
2017-11-23 04:31:34,0.03,1.56,0.00,15.52,18.74,22.02,14.46,49.80,1028.82,2061.17,2812.58,2796.02,3086.05,599.89,618.78,29.07,0000 0000 0000 0000 000000
2017-11-23 04:36:35,0.00,1.56,0.00,15.52,18.74,22.00,14.55,49.72,1028.83,2061.14,2812.04,2796.01,3086.01,599.97,618.77,29.12,0000 0000 0000 0000 000000
2017-11-23 04:41:36,0.01,1.56,0.00,15.53,18.74,22.00,14.47,49.77,1028.83,2061.24,2811.99,2796.00,3085.99,599.90,618.90,29.17,0000 0000 0000 0000 000000
2017-11-23 04:46:38,0.00,1.56,0.00,15.53,18.74,21.97,14.42,49.88,1028.84,2061.23,2811.76,2795.99,3085.94,599.68,618.50,29.22,0000 0000 0000 0000 000000
2017-11-23 04:51:39,0.02,1.56,0.00,15.53,18.74,22.03,14.49,49.87,1028.87,2061.10,2811.09,2795.89,3085.37,599.80,618.56,29.27,0000 0000 0000 0000 000000
2017-11-23 04:56:40,0.05,1.56,0.00,15.54,18.74,22.02,14.60,49.75,1028.86,2061.22,2810.96,2795.32,3085.01,600.50,619.20,29.32,0000 0000 0000 0000 000000
2017-11-23 05:01:41,0.01,1.57,0.00,15.51,18.74,22.00,14.48,49.91,1028.99,2061.23,2810.30,2795.02,3084.98,600.00,618.95,29.37,0000 0000 0000 0000 000000
2017-11-23 05:06:43,0.01,1.57,0.00,15.51,18.73,22.03,14.47,49.83,1029.07,2061.28,2810.00,2795.00,3084.69,599.83,618.86,29.42,0000 0000 0000 0000 000000
2017-11-23 05:11:44,0.03,1.57,0.00,15.52,18.72,22.06,14.47,49.75,1029.26,2061.36,2809.84,2794.98,3084.08,599.81,618.94,29.47,0000 0000 0000 0000 000000
2017-11-23 05:16:45,0.00,1.57,0.00,15.51,18.72,22.03,14.53,49.77,1029.30,2061.31,2809.12,2794.83,3084.01,600.36,619.43,29.52,0000 0000 0000 0000 000000
2017-11-23 05:21:47,0.02,1.57,0.00,15.50,18.72,22.02,14.48,49.79,1029.29,2061.30,2809.00,2794.29,3084.00,599.74,618.93,29.57,0000 0000 0000 0000 000000
2017-11-23 05:26:47,0.01,1.57,0.00,15.49,18.72,22.00,14.51,49.70,1029.30,2061.35,2808.91,2794.06,3083.93,600.10,619.18,29.62,0000 0000 0000 0000 000000
2017-11-23 05:31:49,0.03,1.57,0.00,15.50,18.72,21.99,14.54,49.73,1029.31,2061.44,2808.27,2794.01,3083.48,600.08,619.30,29.67,0000 0000 0000 0000 000000
2017-11-23 05:36:50,-0.01,1.57,0.00,15.49,18.72,22.03,14.59,49.81,1029.31,2061.30,2808.00,2794.00,3083.02,600.19,619.36,29.72,0000 0000 0000 0000 000000
2017-11-23 05:41:52,0.03,1.57,0.00,15.50,18.71,22.02,14.52,49.72,1029.31,2061.40,2807.80,2793.99,3083.01,599.94,619.11,29.77,0000 0000 0000 0000 000000
2017-11-23 05:46:53,0.04,1.57,0.00,15.50,18.70,21.97,14.54,49.64,1029.31,2061.61,2807.10,2793.94,3083.00,599.69,618.92,29.82,0000 0000 0000 0000 000000
2017-11-23 05:51:54,0.02,1.58,0.00,15.51,18.69,21.97,14.53,49.70,1029.31,2061.74,2806.99,2793.58,3082.95,599.91,619.04,29.87,0000 0000 0000 0000 000000
2017-11-23 05:56:56,0.05,1.58,0.00,15.49,18.69,21.99,14.45,49.78,1029.31,2061.78,2806.46,2793.12,3082.32,599.58,618.88,29.92,0000 0000 0000 0000 000000
2017-11-23 06:01:57,0.01,1.58,0.00,15.49,18.69,21.96,14.55,49.72,1029.31,2061.70,2805.37,2792.92,3081.94,600.04,619.39,29.97,0000 0000 0000 0000 000000
2017-11-23 06:06:58,0.04,1.58,0.00,15.48,18.69,21.97,14.53,49.71,1029.31,2061.76,2804.99,2792.47,3081.47,599.84,619.09,30.02,0000 0000 0000 0000 000000
2017-11-23 06:11:59,0.03,1.58,0.00,15.49,18.69,21.94,14.44,49.76,1029.31,2061.89,2804.77,2792.07,3081.08,599.81,618.97,30.07,0000 0000 0000 0000 000000
2017-11-23 06:17:00,0.01,1.58,0.00,15.49,18.69,21.98,14.49,49.74,1029.31,2061.93,2804.07,2792.01,3081.00,599.81,618.96,30.12,0000 0000 0000 0000 000000
2017-11-23 06:22:02,0.00,1.58,0.00,15.48,18.69,22.01,14.56,49.66,1029.31,2061.94,2804.00,2792.00,3081.00,600.03,619.28,30.17,0000 0000 0000 0000 000000
2017-11-23 06:27:03,0.01,1.59,0.00,15.47,18.69,22.00,14.53,49.73,1029.32,2061.92,2803.79,2792.00,3080.75,599.77,618.92,30.22,0000 0000 0000 0000 000000
2017-11-23 06:32:04,0.02,1.59,0.00,15.46,18.68,21.91,14.50,49.74,1029.32,2061.94,2803.09,2791.94,3080.12,599.47,618.71,30.27,0000 0000 0000 0000 000000
2017-11-23 06:37:05,0.01,1.59,0.00,15.45,18.67,21.95,14.48,49.63,1029.38,2061.94,2803.00,2791.55,3080.00,600.00,619.35,30.33,0000 0000 0000 0000 000000
2017-11-23 06:42:06,0.02,1.59,0.00,15.45,18.67,21.92,14.51,49.67,1029.59,2061.93,2802.63,2791.13,3080.00,599.90,619.34,30.38,0000 0000 0000 0000 000000
2017-11-23 06:47:08,0.01,1.59,0.00,15.46,18.67,21.92,14.49,49.67,1029.78,2061.96,2802.06,2791.04,3079.99,600.02,619.41,30.43,0000 0000 0000 0000 000000
2017-11-23 06:52:09,0.00,1.59,0.00,15.47,18.67,21.95,14.50,49.61,1029.79,2061.95,2801.99,2791.00,3079.77,599.72,619.27,30.48,0000 0000 0000 0000 000000
2017-11-23 06:57:10,0.03,1.59,0.00,15.47,18.67,21.96,14.56,49.64,1029.80,2061.96,2801.46,2790.99,3079.07,600.16,619.71,30.53,0000 0000 0000 0000 000000
2017-11-23 07:02:11,0.00,1.59,0.00,15.47,18.67,21.99,14.47,49.56,1029.80,2061.96,2801.01,2790.98,3079.01,600.00,619.46,30.58,0000 0000 0000 0000 000000
2017-11-23 07:07:13,0.02,1.59,0.00,15.46,18.67,21.95,14.55,49.60,1029.80,2061.97,2800.88,2790.71,3078.97,600.30,619.81,30.63,0000 0000 0000 0000 000000
2017-11-23 07:12:14,0.11,1.60,0.00,15.47,18.67,22.00,14.56,49.57,1029.80,2061.98,2799.37,2789.49,3077.78,600.23,619.85,30.68,0000 0000 0000 0000 000000
2017-11-23 07:17:16,0.10,1.60,0.00,15.50,18.67,21.96,14.54,49.53,1029.80,2061.96,2797.25,2788.23,3076.32,600.05,619.46,30.73,0000 0000 0000 0000 000000
2017-11-23 07:22:17,0.14,1.61,0.00,15.50,18.67,21.98,14.48,49.57,1029.80,2061.98,2795.02,2786.64,3074.60,599.80,619.23,30.78,0000 0000 0000 0000 000000
2017-11-23 07:27:18,0.13,1.61,0.00,15.50,18.67,22.01,14.51,49.57,1029.79,2061.99,2792.49,2784.92,3072.69,599.87,619.31,30.83,0000 0000 0000 0000 000000
2017-11-23 07:32:20,0.11,1.62,0.00,15.51,18.67,21.93,14.53,49.63,1029.80,2061.98,2790.24,2783.46,3071.01,600.06,619.42,30.88,0000 0000 0000 0000 000000
2017-11-23 07:37:21,0.07,1.63,0.00,15.51,18.67,21.94,14.49,49.62,1029.80,2061.99,2788.78,2782.37,3069.99,599.83,619.12,30.93,0000 0000 0000 0000 000000
2017-11-23 07:42:22,0.03,1.63,0.00,15.52,18.67,21.92,14.51,49.63,1029.80,2061.99,2787.88,2781.84,3069.16,599.72,619.29,30.98,0000 0000 0000 0000 000000
2017-11-23 07:47:23,0.08,1.63,0.00,15.52,18.67,21.99,14.46,49.61,1029.81,2061.98,2786.62,2780.82,3068.27,599.83,619.25,31.03,0000 0000 0000 0000 000000
2017-11-23 07:52:24,0.10,1.64,0.00,15.52,18.69,22.02,14.50,49.54,1029.82,2061.98,2784.89,2779.65,3066.97,600.18,619.62,31.08,0000 0000 0000 0000 000000
2017-11-23 07:57:25,0.08,1.64,0.00,15.51,18.69,22.00,14.48,49.57,1029.83,2061.99,2783.21,2778.35,3065.75,599.81,619.28,31.13,0000 0000 0000 0000 000000
2017-11-23 08:02:27,0.10,1.65,0.00,15.52,18.69,22.01,14.50,49.57,1029.83,2061.98,2781.31,2777.20,3064.31,599.46,618.99,31.18,0000 0000 0000 0000 000000
2017-11-23 08:07:28,0.07,1.65,0.00,15.54,18.69,21.99,14.50,49.71,1030.03,2061.98,2779.82,2776.07,3063.07,599.65,619.14,31.23,0000 0000 0000 0000 000000
2017-11-23 08:12:29,0.04,1.65,0.00,15.55,18.69,22.00,14.53,49.76,1030.14,2061.96,2779.02,2775.80,3062.53,599.63,619.16,31.28,0000 0000 0000 0000 000000
2017-11-23 08:17:31,0.03,1.65,0.00,15.56,18.70,21.99,14.54,49.63,1030.22,2061.96,2778.36,2775.11,3062.02,599.94,619.51,31.33,0000 0000 0000 0000 000000
2017-11-23 08:22:32,0.00,1.66,0.00,15.57,18.71,22.01,14.53,49.67,1030.26,2061.97,2778.00,2775.00,3061.97,599.71,619.23,31.38,0000 0000 0000 0000 000000
2017-11-23 08:27:33,0.03,1.66,0.00,15.57,18.72,22.03,14.52,49.64,1030.29,2061.96,2777.64,2774.96,3061.50,600.15,619.74,31.43,0000 0000 0000 0000 000000
2017-11-23 08:32:35,0.02,1.66,0.00,15.58,18.72,22.00,14.55,49.65,1030.29,2061.96,2777.02,2774.52,3061.02,599.82,619.48,31.48,0000 0000 0000 0000 000000
2017-11-23 08:37:36,0.02,1.66,0.00,15.59,18.72,21.98,14.43,49.56,1030.30,2061.94,2776.48,2774.04,3060.95,599.42,618.96,31.53,0000 0000 0000 0000 000000
2017-11-23 08:42:37,0.01,1.66,0.00,15.59,18.74,22.03,14.55,49.56,1030.30,2061.90,2776.01,2773.98,3060.33,600.05,619.57,31.58,0000 0000 0000 0000 000000
2017-11-23 08:47:39,0.03,1.66,0.00,15.60,18.74,22.02,14.51,49.57,1030.31,2061.75,2775.43,2773.45,3059.91,599.90,619.48,31.63,0000 0000 0000 0000 000000
2017-11-23 08:52:40,0.05,1.66,0.00,15.61,18.74,22.02,14.58,49.67,1030.31,2061.79,2774.40,2773.00,3059.09,600.10,619.46,31.68,0000 0000 0000 0000 000000
2017-11-23 08:57:41,-0.01,1.66,0.00,15.62,18.75,22.03,14.51,49.64,1030.31,2061.64,2774.02,2772.93,3059.00,600.04,619.65,31.73,0000 0000 0000 0000 000000
2017-11-23 09:02:43,0.02,1.66,0.00,15.63,18.77,22.06,14.58,49.64,1030.34,2061.58,2773.88,2772.36,3058.94,600.65,620.14,31.78,0000 0000 0000 0000 000000
2017-11-23 09:07:44,0.01,1.67,0.00,15.63,18.77,22.09,14.60,49.75,1030.35,2061.40,2773.10,2772.01,3058.26,600.07,619.61,31.83,0000 0000 0000 0000 000000
2017-11-23 09:12:45,0.01,1.67,0.00,15.63,18.77,22.08,14.54,49.65,1030.32,2061.29,2772.98,2772.00,3058.01,600.07,619.63,31.88,0000 0000 0000 0000 000000
2017-11-23 09:17:46,-0.01,1.67,0.00,15.64,18.79,22.09,14.55,49.77,1030.35,2061.11,2772.33,2771.96,3057.98,599.64,619.17,31.93,0000 0000 0000 0000 000000
2017-11-23 09:22:47,0.03,1.67,0.00,15.64,18.79,22.06,14.54,49.70,1030.35,2061.09,2772.00,2771.50,3057.69,599.85,619.38,31.98,0000 0000 0000 0000 000000
2017-11-23 09:27:48,0.02,1.67,0.00,15.64,18.79,22.09,14.55,49.82,1030.35,2061.05,2771.50,2771.03,3057.04,599.87,619.35,32.03,0000 0000 0000 0000 000000
2017-11-23 09:32:50,0.01,1.67,0.00,15.67,18.81,22.09,14.47,49.79,1030.35,2061.05,2771.02,2771.00,3057.00,599.58,619.07,32.08,0000 0000 0000 0000 000000
2017-11-23 09:37:51,0.00,1.67,0.00,15.67,18.82,22.06,14.53,49.72,1030.32,2061.07,2770.99,2770.99,3056.97,600.18,619.60,32.13,0000 0000 0000 0000 000000
2017-11-23 09:42:52,0.03,1.67,0.00,15.67,18.82,22.07,14.52,49.73,1030.35,2061.03,2770.50,2770.85,3056.62,599.82,619.38,32.18,0000 0000 0000 0000 000000
2017-11-23 09:47:53,0.03,1.67,0.00,15.68,18.83,22.12,14.56,49.73,1030.44,2061.02,2770.01,2770.16,3056.03,600.08,619.53,32.23,0000 0000 0000 0000 000000
2017-11-23 09:52:54,-0.00,1.67,0.00,15.70,18.84,22.08,14.53,49.83,1030.54,2061.03,2769.96,2770.03,3056.00,599.54,619.11,32.28,0000 0000 0000 0000 000000
2017-11-23 09:57:56,0.01,1.67,0.00,15.72,18.84,22.09,14.48,49.89,1030.72,2061.03,2769.37,2770.00,3056.00,599.55,619.18,32.33,0000 0000 0000 0000 000000
2017-11-23 10:02:57,0.01,1.67,0.00,15.73,18.86,22.09,14.50,49.69,1030.73,2061.01,2769.00,2769.98,3055.64,599.76,619.30,32.38,0000 0000 0000 0000 000000
2017-11-23 10:07:58,0.02,1.67,0.00,15.74,18.87,22.10,14.55,49.79,1030.62,2061.00,2768.98,2769.73,3055.06,599.85,619.27,32.44,0000 0000 0000 0000 000000
2017-11-23 10:12:59,0.03,1.68,0.00,15.75,18.87,22.09,14.50,49.73,1030.68,2061.00,2768.43,2769.13,3054.99,599.82,619.27,32.49,0000 0000 0000 0000 000000
2017-11-23 10:18:01,0.01,1.68,0.00,15.77,18.89,22.11,14.61,49.67,1030.69,2061.00,2768.00,2769.00,3054.40,600.58,619.98,32.54,0000 0000 0000 0000 000000
2017-11-23 10:23:02,0.02,1.68,0.00,15.78,18.89,22.15,14.43,49.69,1030.70,2061.00,2767.63,2768.85,3054.01,599.86,619.24,32.59,0000 0000 0000 0000 000000
2017-11-23 10:28:03,0.03,1.68,0.00,15.80,18.90,22.11,14.51,49.95,1030.65,2061.00,2767.04,2768.17,3053.90,599.47,618.84,32.64,0000 0000 0000 0000 000000
2017-11-23 10:33:04,0.01,1.68,0.00,15.83,18.92,22.15,14.49,49.98,1030.58,2061.00,2766.99,2768.01,3053.27,599.90,618.98,32.69,0000 0000 0000 0000 000000
2017-11-23 10:38:05,0.01,1.68,0.00,15.84,18.92,22.19,14.49,49.88,1030.68,2061.00,2766.72,2768.00,3053.02,600.28,619.50,32.74,0000 0000 0000 0000 000000
2017-11-23 10:43:07,0.01,1.68,0.00,15.83,18.93,22.18,14.61,49.92,1030.66,2060.99,2766.08,2767.95,3052.99,600.21,619.45,32.79,0000 0000 0000 0000 000000
2017-11-23 10:48:08,0.03,1.68,0.00,15.84,18.94,22.16,14.48,49.98,1030.56,2060.99,2766.00,2767.47,3052.77,600.00,619.25,32.84,0000 0000 0000 0000 000000
2017-11-23 10:53:09,0.02,1.69,0.00,15.86,18.95,22.23,14.46,49.94,1030.71,2060.98,2765.82,2767.04,3052.12,599.93,619.05,32.89,0000 0000 0000 0000 000000
2017-11-23 10:58:11,0.01,1.69,0.00,15.87,18.97,22.21,14.47,49.89,1030.71,2060.97,2765.13,2767.00,3052.00,599.58,618.88,32.94,0000 0000 0000 0000 000000
2017-11-23 11:03:12,-0.00,1.69,0.00,15.88,18.97,22.17,14.61,49.84,1030.71,2060.93,2765.00,2766.97,3051.99,600.15,619.32,32.99,0000 0000 0000 0000 000000
2017-11-23 11:08:13,0.01,1.69,0.00,15.89,18.97,22.22,14.57,49.87,1030.56,2060.85,2764.94,2766.74,3051.67,600.31,619.31,33.04,0000 0000 0000 0000 000000
2017-11-23 11:13:15,0.02,1.69,0.00,15.89,18.99,22.25,14.49,50.02,1030.44,2060.69,2764.34,2766.14,3051.07,599.92,618.87,33.09,0000 0000 0000 0000 000000
2017-11-23 11:18:16,0.00,1.69,0.00,15.91,18.99,22.25,14.51,49.97,1030.36,2060.66,2764.02,2766.01,3051.00,600.01,618.90,33.14,0000 0000 0000 0000 000000
2017-11-23 11:23:17,-0.03,1.69,0.00,15.92,18.99,22.22,14.46,49.95,1030.30,2060.46,2764.00,2766.00,3050.99,599.94,618.90,33.19,0000 0000 0000 0000 000000
2017-11-23 11:28:18,-0.01,1.69,0.00,15.92,19.01,22.25,14.51,50.08,1030.31,2060.18,2763.95,2765.99,3050.83,599.89,618.70,33.24,0000 0000 0000 0000 000000
2017-11-23 11:33:20,0.01,1.69,0.00,15.92,19.02,22.28,14.56,50.10,1030.30,2060.11,2763.54,2765.98,3050.28,600.25,618.99,33.29,0000 0000 0000 0000 000000
2017-11-23 11:38:21,0.01,1.69,0.00,15.92,19.02,22.28,14.49,50.11,1030.31,2060.08,2763.05,2765.75,3050.02,599.84,618.78,33.35,0000 0000 0000 0000 000000
2017-11-23 11:43:22,0.01,1.69,0.00,15.93,19.02,22.31,14.52,50.21,1030.31,2060.05,2763.00,2765.21,3050.00,600.08,619.02,33.40,0000 0000 0000 0000 000000
2017-11-23 11:48:23,0.00,1.69,0.00,15.90,19.03,22.32,14.58,50.27,1030.31,2060.03,2762.99,2765.02,3049.98,600.20,619.03,33.45,0000 0000 0000 0000 000000
2017-11-23 11:53:24,0.01,1.69,0.00,15.91,19.04,22.29,14.49,50.10,1030.29,2060.02,2762.88,2765.00,3049.84,599.99,618.93,33.50,0000 0000 0000 0000 000000
2017-11-23 11:58:25,0.02,1.69,0.00,15.93,19.04,22.28,14.54,49.98,1030.30,2060.02,2762.30,2765.00,3049.33,599.97,618.85,33.55,0000 0000 0000 0000 000000
2017-11-23 12:03:26,0.00,1.69,0.00,15.93,19.04,22.32,14.49,50.01,1030.30,2060.00,2762.02,2765.00,3049.04,599.88,618.86,33.60,0000 0000 0000 0000 000000
2017-11-23 12:08:28,0.00,1.69,0.00,15.92,19.04,22.35,14.57,50.02,1030.29,2060.01,2762.00,2764.93,3049.00,600.03,618.93,33.65,0000 0000 0000 0000 000000
2017-11-23 12:13:29,0.00,1.69,0.00,15.91,19.04,22.31,14.46,50.23,1030.29,2060.00,2761.99,2764.86,3049.00,600.19,619.14,33.70,0000 0000 0000 0000 000000
2017-11-23 12:18:30,0.01,1.69,0.00,15.91,19.05,22.23,14.53,50.04,1030.29,2060.00,2761.95,2764.53,3048.97,600.15,619.03,33.75,0000 0000 0000 0000 000000
2017-11-23 12:23:31,0.03,1.69,0.00,15.90,19.05,22.30,14.39,50.20,1030.29,2060.00,2761.55,2764.12,3048.79,599.93,618.86,33.80,0000 0000 0000 0000 000000
2017-11-23 12:28:33,0.01,1.69,0.00,15.91,19.06,22.32,14.51,50.27,1030.24,2060.00,2761.06,2764.01,3048.31,599.95,618.78,33.85,0000 0000 0000 0000 000000
2017-11-23 12:33:34,0.00,1.69,0.00,15.92,19.07,22.35,14.59,50.28,1030.25,2060.00,2761.00,2764.00,3048.02,600.16,619.03,33.90,0000 0000 0000 0000 000000
2017-11-23 12:38:36,0.00,1.69,0.00,15.90,19.07,22.33,14.50,50.08,1030.26,2060.00,2761.00,2763.99,3048.00,599.93,618.90,33.95,0000 0000 0000 0000 000000
2017-11-23 12:43:37,0.00,1.69,0.00,15.90,19.07,22.35,14.54,50.02,1030.26,2060.00,2760.97,2763.98,3048.00,599.89,618.80,34.00,0000 0000 0000 0000 000000
2017-11-23 12:48:38,0.01,1.69,0.00,15.91,19.07,22.31,14.45,49.84,1030.27,2060.00,2760.64,2763.95,3047.99,599.88,618.73,34.05,0000 0000 0000 0000 000000
2017-11-23 12:53:40,0.05,1.70,0.00,15.91,19.07,22.33,14.49,49.93,1030.26,2060.00,2760.07,2763.24,3047.27,600.07,618.93,34.10,0000 0000 0000 0000 000000